Regional Weather Roundup
Issued by NWS Charleston, SC

Current Version | Previous Version | Graphics & Text | Print | Product List | Glossary On
Versions: 1 2 3 4 5 6 7 8 9 10 11 12 13 14 15 16 17 18 19 20 21 22 23 24 25 26 27 28 29 30 31 32 33 34 35 36 37 38 39 40 41 42 43 44 45 46 47 48 49 50
000
ASUS42 KCHS 202312
RWRCHS

REGIONAL WEATHER ROUNDUP
NATIONAL WEATHER SERVICE CHARLESTON SC
700 PM EDT MON APR 20 2015

NOTE: "FAIR" INDICATES FEW OR NO CLOUDS BELOW 12,000 FEET WITH NO
SIGNIFICANT WEATHER AND/OR OBSTRUCTIONS TO VISIBILITY.

NOT ALL STATIONS ARE QUALITY CONTROLLED BY THE NATIONAL
WEATHER SERVICE. USE DATA WITH CAUTION...ESPECIALLY
DEWPOINT OBSERVATIONS.

SCZ027-030-031-034>040-042>050-210000-
...SOUTHEAST SOUTH CAROLINA...

CITY           SKY/WX    TMP DP  RH WIND       PRES   REMARKS
N CHARLESTON   CLOUDY    70  66  87 S9        29.76R
WATERFRONT PRK   N/A     70 N/A N/A SW8         N/A
MOUNT PLEASANT DRIZZLE   70  66  88 CALM      29.77R
PINOPOLIS      NOT AVBL
MONCKS CORNER  LGT RAIN  72  64  78 S5        29.74S
SUMMERVILLE    FAIR      70  68  94 SE5       29.74F
BEAUFORT MCAS  CLOUDY    71  65  81 SW10      29.77R
BEAUFORT ARPT  FAIR      72  64  78 SW9       29.77R
HILTON HEAD IS CLOUDY    72  63  73 SW10      29.77R
WALTERBORO     CLOUDY    68  64  88 S8        29.75S
ALLENDALE      FAIR      70  66  88 VRB5      29.72S

...SOUTHERN MIDLANDS AND PEE DEE...

CITY           SKY/WX    TMP DP  RH WIND       PRES   REMARKS
GEORGETOWN     NOT AVBL
KINGSTREE      NOT AVBL
ORANGEBURG     CLOUDY    70  64  81 SW8       29.71F
BARNWELL       FAIR      72  66  83 SW8       29.72S
AIKEN          FAIR      72  61  68 SW8G18    29.73F
MANNING        MOCLDY    68  63  83 S5        29.72S
COLUMBIA       CLOUDY    73  62  68 SW10G18   29.69F
SUMTER         CLOUDY    71  65  83 S9        29.69F
FLORENCE       CLOUDY    71  64  78 S8        29.72S
MYRTLE BEACH   CLEAR     70  64  83 SW9       29.76S
N MYRTLE BEACH CLOUDY    68  64  87 SW16      29.74F

$$

GAZ063-065-086>088-099>101-113>116-118-119-134>141-150-210000-
...SOUTHEAST GEORGIA...

CITY           SKY/WX    TMP DP  RH WIND       PRES   REMARKS
SAVANNAH ARPT  CLOUDY    71  61  70 S8        29.77R
HUNTER AAF     CLOUDY    71  61  70 SW7       29.75R
FORT STEWART   PTSUNNY   70  61  73 CALM      29.76R
STATESBORO       N/A     71  61  72 SW8       29.74S
SYLVANIA       CLOUDY    70  63  78 SW7       29.74S
CLAXTON        FAIR      70  63  78 CALM      29.75F

...CSRA...CENTRAL AND FAR SOUTHEAST GEORGIA...

CITY           SKY/WX    TMP DP  RH WIND       PRES   REMARKS
THOMSON        MOSUNNY   75  63  65 SW8G16    29.73F
AUGUSTA-BUSH   CLOUDY    73  61  65 SW15G23   29.69F
AUGUSTA-DANIEL CLOUDY    74  61  63 SW12G23   29.70F
SWAINSBORO     NOT AVBL
VIDALIA        CLOUDY    70  61  73 SW10      29.76S
EASTMAN        FAIR      73  63  72 SW9       29.77S
HAZLEHURST     FAIR      72  62  71 SW3       29.76F
ALMA           CLOUDY    68  61  78 S6        29.79R
WAYCROSS       CLOUDY    71  63  75 SW5       29.80R
JESUP          FAIR      70  63  78 SW3       29.79F
BAXLEY         FAIR      70  63  78 SW6       29.78R
BRUNSWICK      CLOUDY    70  57  64 SW9       29.78R
SAINT SIMONS   CLOUDY    70  59  68 S8G17     29.76F

$$

SCZ027-028-034-036>038-045-046-048>050-GAZ119-141-210000-
...LAKE AND SUPPLEMENTAL COASTAL OBSERVATIONS...

STATION/POSITION TIME  TEMP    WIND        PRES    WAVE   SWELL
                       AIR SEA DIR/SP/G            HT/PER HT/PER/DIR
                 (UTC) (F)     (DEG/KT/KT) (MB)    (FT/S) (FT/S/D)
UPR LAKE MARION  NOT AVBL
WINYAH BAY       NOT AVBL
LAKE MURRAY      2200   71     220/ 12/ 15 1005.4S
ACE BASIN NERRS  NOT AVBL
FORT PULASKI     2200   72 72  220/  8/ 16 1007.4F
SAPELO ISLAND    NOT AVBL

$$

ANZ835-935-AMZ111-154-330-350-352-354-370-450-454-472-210000-
...C-MAN AND BUOY OBSERVATIONS...

STATION/POSITION TIME  TEMP    WIND        PRES    WAVE   SWELL
                       AIR SEA DIR/SP/G            HT/PER HT/PER/DIR
                 (UTC) (F)     (DEG/KT/KT) (MB)    (FT/S) (FT/S/D)
BUOY 41004       2250   73 74  210/ 16/ 17 1007.3F   4/ 5   2/ 9
BUOY 41008       2250   71 68  180/ 23/ 27 1007.8F   4/ 4   2/120/ 9
FOLLY BEACH CMAN 2300   69     200/ 10/ 11 1007.7R
CAPERS NEARSHORE NOT AVBL
FRIPP NEARSHORE  NOT AVBL


STATION/POSITION TIME  TEMP    WIND        PRES    WAVE   SWELL
                       AIR SEA DIR/SP/G            HT/PER HT/PER/DIR
                 (UTC) (F)     (DEG/KT/KT) (MB)    (FT/S) (FT/S/D)
5E ST. MARYS GA  2221      70                N/A     3/ 3   2/110/12
FRYING PAN BUOY  2250   74 73  200/ 19/ 25 1007.8F   4/ 6   2/210/ 8
BUOY 41025       2250   73 73  210/ 21/ 25 1007.8R   6/ 8   3/110/ 8
CAPE LOOKOUT NC  2200   68     200/ 10/ 14 1007.6R
BUOY 41002       2250   74 73  220/ 16/ 19 1011.5S   5/ 6   2/ 90/ 8
BUOY 41010       2220   80 79  220/ 17/ 19 1011.3S
ST AUGUSTINE FL  2300   65 64  290/  1/  2 1012.8F


$$



USA.gov is the U.S. government's official web portal to all federal, state and local government web resources and services.